Regional Weather Roundup
Issued by NWS

Home | Current Version | Previous Version | Graphics & Text | Print | Product List | Glossary On
Versions: 1 2 3 4 5 6 7 8 9 10 11 12 13 14 15 16 17 18 19 20 21 22 23 24 25 26 27 28 29 30 31 32 33 34 35 36 37 38 39 40 41 42 43 44 45 46 47 48 49 50
000
ASUS43 KLSX 281459
RWRMO

WEATHER SUMMARY FOR MISSOURI
NATIONAL WEATHER SERVICE SPRINGFIELD MO
1000 AM CDT THU AUG 28 2014

NOTE: "FAIR" INDICATES FEW OR NO CLOUDS BELOW 12,000 FEET WITH NO
       SIGNIFICANT WEATHER AND/OR OBSTRUCTIONS TO VISIBILITY.
       CURRENT SKY AND/OR WEATHER CONDITIONS ARE NOT AVAILABLE FOR
       CHILLICOTHE AND FARMINGTON.

MOZ001>031-035>038-043-044-053-054-281600-
...NORTHERN AND WESTERN MISSOURI...

CITY           SKY/WX    TMP DP  RH WIND       PRES   REMARKS
KANSAS CTY INT CLOUDY    79  71  76 SW7       29.99R
KANSAS C DTWN  PTSUNNY   82  71  69 SW7       29.97S
LEE`S SUMMIT   MOSUNNY   78  70  76 SW9       30.00R
ST JOSEPH      PTSUNNY   77  72  84 E3        29.98S
KIRKSVILLE     PTSUNNY   76  70  82 SE8       30.03S

$$
MOZ066>068-077>081-088>096-101>105-281600-
...SOUTHWEST MISSOURI...

CITY           SKY/WX    TMP DP  RH WIND       PRES   REMARKS
SPRINGFIELD    SUNNY     83  69  62 S10       30.04S
JOPLIN         SUNNY     85  66  53 S12       30.02S

$$
MOZ032>034-039>042-045>050-055>058-069>072-281600-
...CENTRAL MISSOURI...

CITY           SKY/WX    TMP DP  RH WIND       PRES   REMARKS
COLUMBIA       SUNNY     83  71  67 S10       30.03S
JEFFERSON CITY SUNNY     81  71  71 VRB3      30.02S
ROLLA          SUNNY     83  69  62 S8        30.04F
SEDALIA        MOSUNNY   85  71  63 S10       30.01S HX  90
OSAGE BEACH    SUNNY     82  70  65 S7        30.03S

$$
MOZ051-052-059>065-281600-
...EAST CENTRAL MISSOURI...

CITY           SKY/WX    TMP DP  RH WIND       PRES   REMARKS
ST LOUIS INTL  MOSUNNY   81  71  71 SE6       30.05F
SPIRIT OF STL  MOSUNNY   80  72  76 CALM      30.03F
ST CHARLES     SUNNY     79  72  79 E7        30.04F

$$
MOZ072>076-082>087-097>100-106>115-281600-
...SOUTH CENTRAL AND SOUTHEAST MISSOURI...

CITY           SKY/WX    TMP DP  RH WIND       PRES   REMARKS
CAPE GIRARDEAU SUNNY     83  72  69 S3        30.04S
FARMINGTON     PTSUNNY   81  72  74 S5        30.09S
POPLAR BLUFF   SUNNY     84  72  67 CALM      30.04R
WEST PLAINS    SUNNY     82  67  60 S7        30.08S

$$


USA.gov is the U.S. government's official web portal to all federal, state and local government web resources and services.